Station 41001 (LLNR 635) - EAST HATTERAS - 150 NM East of Cape Hatteras Image indicating link to RSS feed of recent meteorological observations for station 41001


Conditions at 41001 as of
(4:50 am EDT)
0850 GMT on 04/21/2024:
     

Click on the graph icon in the table below to see a time series plot of the last five days of that observation.

5-day plot - Wind Direction Wind Direction (WDIR): NE ( 50 deg true )
5-day plot - Wind Speed Wind Speed (WSPD): 9.7 kts
5-day plot - Wind Gust Wind Gust (GST): 13.6 kts
5-day plot - Wave Height Wave Height (WVHT): 4.9 ft
5-day plot - Dominant Wave Period Dominant Wave Period (DPD): 6 sec
5-day plot - Average Wave Period Average Period (APD): 5.7 sec
5-day plot - Mean Wave Direction Mean Wave Direction (MWD): SW ( 225 deg true )
5-day plot - Atmospheric Pressure Atmospheric Pressure (PRES):29.94 in
5-day plot - Air Temperature Air Temperature (ATMP): 70.5 °F
5-day plot - Water Temperature Water Temperature (WTMP): 74.7 °F
5-day plot - Dew Point Dew Point (DEWP): 64.6 °F
5-day plot - Wind Speed at 10 Meters Wind Speed at 10 meters (WSPD10M): 11.7 kts
5-day plot - Wind Speed at 20 Meters Wind Speed at 20 meters (WSPD20M): 11.7 kts
5-day plot -  Wind Speed, Wind Gust and Atmospheric Pressure Combined plot of Wind Speed, Gust, and Air Pressure
Supplemental Measurements
Highest 1-minute Wind Speed
Time (EDT)5-day plot - 1-Minute Wind Speed WSPD 5-day plot - 1-Minute Wind Direction WDIR
4:49 am 11.7 kts-
Previous observations
TIME
(EDT)
5-day plot - Wind Direction
WDIR
 
5-day plot - Wind Speed
WSPD
kts
5-day plot - Wind Gust
GST
kts
5-day plot - Wave Height
WVHT
ft
5-day plot - Dominant Wave Period
DPD
sec
5-day plot - Average Wave Period
APD
sec
5-day plot - Mean Wave Direction
MWD
 
5-day plot - Atmospheric Pressure
PRES
in
5-day plot - Pressure Tendency
PTDY
in
5-day plot - Air Temperature
ATMP
°F
5-day plot - Water Temperature
WTMP
°F
5-day plot - Dew Point
DEWP
°F
5-day plot - Salinity
SAL
psu
5-day plot - Visibility
VIS
nmi
5-day plot - Tide (above MLLW)
TIDE
ft
2024-04-21 04:40 am NE 9.7 13.6----29.94- 70.3 74.7 64.4---
2024-04-21 04:30 am NE 9.7 13.6----29.94- 70.3 74.7 64.8---
2024-04-21 04:20 am NE 9.7 11.7 4.9 75.8SSE29.94- 70.3 74.7 64.9---
2024-04-21 04:10 amNNE 9.7 15.5 4.9-5.8SSE29.94- 70.3 74.7 65.1---
2024-04-21 04:00 amNNE 11.7 13.6----29.94+0.00 70.3 74.7 65.5---
2024-04-21 03:50 amNNE 9.7 13.6 4.9 75.6 SW29.94- 70.5 74.7 65.5---
2024-04-21 03:40 amNNE 11.7 15.5----29.94- 70.3 74.7 65.5---
2024-04-21 03:30 amNNE 11.7 13.6----29.94- 70.2 74.7 65.7---
2024-04-21 03:20 amNNE 9.7 13.6 5.2 75.6ENE29.94- 70.0 74.7 66.0---
2024-04-21 03:10 amNNE 9.7 13.6 5.2-5.6ENE29.94- 70.0 74.7 66.0---
2024-04-21 03:00 amNNE 9.7 13.6----29.94+0.00 69.6 74.7 65.8---
2024-04-21 02:50 amNNE 11.7 13.6 4.9 75.3 S29.94- 69.8 74.7 66.0---
2024-04-21 02:40 am N 13.6 15.5 4.9-5.3 S29.94- 70.0 74.7 66.0---
2024-04-21 02:30 am N 13.6 17.5----29.95- 70.3 74.7 66.2---
2024-04-21 02:20 am N 13.6 17.5 4.9 65.2 S29.96- 70.5 74.7 66.2---
2024-04-21 02:10 am N 13.6 17.5 4.9-5.2 S29.95- 70.7 74.7 66.6---
2024-04-21 02:00 am N 13.6 17.5----29.96+0.00 70.7 74.7 66.7---
2024-04-21 01:50 am N 13.6 19.4 4.9 65.4WSW29.96- 70.7 74.7 66.7---
2024-04-21 01:40 am N 13.6 17.5----29.95- 71.1 74.7 67.3---
2024-04-21 01:30 am N 15.5 19.4----29.94- 71.2 74.7 67.3---
2024-04-21 01:20 am N 13.6 17.5 5.2 85.5ENE29.94- 71.1 74.5 66.9---
2024-04-21 01:10 am N 15.5 17.5 5.2-5.5ENE29.94- 71.2 74.7 67.1---
2024-04-21 01:00 amNNW 13.6 17.5----29.94-0.01 71.2 74.5 67.3---
2024-04-21 12:50 amNNW 13.6 17.5 4.9 65.3 SW29.94- 71.2 74.7 67.3---
2024-04-21 12:40 amNNW 11.7 15.5 4.9-5.3 SW29.94- 71.2 74.5 67.8---
2024-04-21 12:30 am N 13.6 17.5----29.94- 70.9 74.5 67.6---
2024-04-21 12:20 am N 13.6 17.5 5.6 85.5ENE29.95- 71.1 74.5 68.2---
2024-04-21 12:10 am N 11.7 15.5 5.6-5.5ENE29.95- 71.1 74.5 68.4---
2024-04-21 12:00 am N 13.6 15.5----29.95+0.01 71.2 74.5 68.7---
2024-04-20 11:50 pmNNW 13.6 17.5 5.2 85.4 E29.95- 71.2 74.5 68.5---
2024-04-20 11:40 pmNNW 17.5 21.4 5.2-5.4 E29.95- 71.8 74.5 68.9---
2024-04-20 11:30 pm NW 15.5 19.4----29.95- 72.7 74.5 68.7---
2024-04-20 11:20 pm NW 15.5 19.4 5.6 85.3ENE29.94- 72.9 74.5 68.2---
2024-04-20 11:10 pm W 9.7 15.5 5.6-5.3ENE29.96- 72.0 74.5 68.5---
2024-04-20 11:00 pm W 11.7 17.5----29.96+0.04 72.1 74.5 69.3---
2024-04-20 10:50 pm W 15.5 23.3 5.2 75.0ENE29.96- 74.1 74.5 69.6---
2024-04-20 10:40 pmWSW 15.5 21.4 5.2-5.0ENE29.95- 74.7 74.5 70.7---
2024-04-20 10:30 pmWSW 15.5 19.4----29.94- 74.7 74.3 70.7---
2024-04-20 10:20 pmWSW 15.5 19.4 5.2 84.9ENE29.94- 74.8 74.3 71.1---
2024-04-20 10:10 pmWSW 15.5 21.4 5.2-4.9ENE29.94- 74.7 74.3 70.7---
2024-04-20 10:00 pmWSW 15.5 21.4----29.95+0.03 74.7 74.3 70.7---
2024-04-20 09:50 pmWSW 15.5 19.4 5.6 84.9ENE29.95- 74.7 74.3 70.9---
2024-04-20 09:40 pmWSW 17.5 21.4----29.95- 74.7 74.3 70.7---
2024-04-20 09:30 pmWSW 17.5 21.4----29.94- 74.5 74.3 70.7---
2024-04-20 09:20 pmWSW 17.5 21.4 4.9 84.8ENE29.94- 74.7 74.3 70.7---
2024-04-20 09:10 pmWSW 17.5 23.3 4.9-4.8ENE29.94- 74.7 74.3 70.2---
2024-04-20 09:00 pmWSW 17.5 23.3----29.93+0.00 74.7 74.3 70.5---
2024-04-20 08:50 pm SW 15.5 19.4 5.2 85.0 E29.93- 74.5 74.3 70.3---
2024-04-20 08:40 pm SW 17.5 21.4----29.93- 74.5 74.3 70.3---
2024-04-20 08:30 pm SW 15.5 19.4----29.92- 74.5 74.3 70.7---
2024-04-20 08:20 pm SW 15.5 19.4 5.2 105.1NNE29.93- 74.5 74.3 70.5---
2024-04-20 08:10 pm SW 15.5 19.4 5.2-5.1NNE29.92- 74.5 74.3 70.5---
2024-04-20 08:00 pm SW 15.5 19.4----29.92-0.02 74.5 74.3 70.5---
2024-04-20 07:50 pm SW 17.5 21.4 5.2 115.3NNE29.93- 74.7 74.3 70.7---
2024-04-20 07:40 pm SW 17.5 23.3----29.92- 74.7 74.3 70.7---
2024-04-20 07:10 pm SW 19.4 23.3 5.2-5.3ENE29.92- 74.5 74.3 70.9---
2024-04-20 07:00 pm SW 17.5 25.3----29.92-0.04 74.7 74.3 71.2---
2024-04-20 06:50 pm SW 17.5 21.4 4.6 105.2 NE29.92- 74.7 74.3 71.2---
2024-04-20 06:40 pm SW 17.5 21.4 4.6-5.2 NE29.92- 74.5 74.3 71.1---
2024-04-20 06:30 pm SW 15.5 21.4----29.93- 74.5 74.3 71.2---
2024-04-20 06:20 pm SW 15.5 19.4 4.6 115.4 NE29.93- 74.7 74.3 71.4---
2024-04-20 06:10 pm SW 15.5 19.4 4.6-5.4 NE29.93- 74.7 74.3 71.4---
2024-04-20 06:00 pm SW 15.5 19.4----29.93-0.04 74.5 74.3 71.4---
2024-04-20 05:50 pm SW 15.5 19.4 4.6 115.5 N29.94- 74.5 74.3 71.4---
2024-04-20 05:40 pm SW 15.5 21.4 4.6-5.5 N29.93- 74.5 74.3 71.4---
2024-04-20 05:30 pm SW 15.5 19.4----29.93- 74.5 74.3 71.6---
2024-04-20 05:20 pm SW 13.6 19.4 4.6 85.5 NE29.93- 74.5 74.1 71.8---
2024-04-20 05:10 pm SW 11.7 17.5 4.6-5.5 NE29.93- 74.1 74.1 71.1---
2024-04-20 05:00 pm SW 11.7 15.5----29.94-0.06 74.1 73.9 70.2---
2024-04-20 04:50 pm SW 11.7 15.5 4.9 105.1 E29.95- 74.5 73.9 69.6---
2024-04-20 04:40 pmSSW 9.7 13.6----29.95- 73.6 73.9 66.7---
2024-04-20 04:30 pm S 11.7 17.5----29.95- 73.2 73.9 66.2---
2024-04-20 04:20 pmSSW 15.5 19.4 5.2 115.1NNE29.95- 72.9 73.9 64.2---
2024-04-20 04:10 pmSSW 19.4 23.3 5.2-5.1NNE29.95- 72.9 73.9 64.0---
2024-04-20 04:00 pmSSW 23.3 33.0----29.96-0.07 72.7 73.9 64.4---
2024-04-20 03:50 pmSSW 19.4 27.2 5.2 115.5 NE29.95- 73.0 73.9 65.1---
2024-04-20 03:40 pmSSW 19.4 27.2 5.2-5.5 NE29.95- 71.6 73.9 65.3---
2024-04-20 03:30 pmSSW 17.5 23.3----29.97- 72.9 73.9 70.5---
2024-04-20 03:20 pmSSW 15.5 21.4 5.2 115.7 N29.97- 72.7 73.9 70.2---
2024-04-20 03:10 pmSSW 15.5 19.4 5.2-5.7 N29.97- 72.5 73.9 70.0---
2024-04-20 03:00 pmSSW 17.5 23.3----29.98-0.06 72.5 73.8 69.8---
2024-04-20 02:50 pmSSW 17.5 21.4 5.6 116.2NNE29.98- 72.5 73.8 69.6---
2024-04-20 02:40 pmSSW 15.5 19.4----29.98- 72.5 73.8 69.6---
2024-04-20 02:30 pmSSW 15.5 21.4----29.99- 72.5 73.8 69.4---
2024-04-20 02:20 pmSSW 15.5 19.4 5.6 106.4NNE29.99- 72.7 73.6 69.3---
2024-04-20 02:10 pmSSW 15.5 21.4 5.6-6.4NNE30.00- 72.5 73.6 68.9---
2024-04-20 02:00 pmSSW 15.5 19.4----30.00-0.06 72.3 73.4 68.5---
2024-04-20 01:50 pmSSW 15.5 19.4 5.6 116.8NNE30.01- 72.3- 68.5---
2024-04-20 01:40 pmSSW 15.5 19.4----30.01- 72.1 73.0 68.4---
2024-04-20 01:30 pm S 13.6 19.4----30.01- 72.1 72.9 68.2---
2024-04-20 01:20 pm S 15.5 19.4 5.2 87.0 NE30.01- 72.3 73.0 68.0---
2024-04-20 01:10 pmSSW 13.6 19.4 5.2-7.0 NE30.02- 72.3 73.0 67.1---
2024-04-20 01:00 pmSSW 13.6 17.5----30.02-0.03 72.0 72.7 66.2---
2024-04-20 12:50 pmSSW 13.6 15.5 4.6 107.3 NE30.03- 71.8 72.3 65.7---
2024-04-20 12:40 pm S 11.7 15.5----30.03- 71.4 72.1 65.1---
2024-04-20 12:30 pm S 11.7 15.5----30.03- 71.2 71.8 64.8---
2024-04-20 12:20 pm S 11.7 15.5 4.9 117.8NNE30.03- 71.1 71.8 64.4---
2024-04-20 12:10 pm S 11.7 13.6 4.9-7.8NNE30.04- 71.1 72.0 64.4---
2024-04-20 12:00 pmSSW 9.7 13.6----30.04-0.01 71.1 71.8 64.2---
2024-04-20 11:50 amSSW 9.7 13.6 5.2 117.7NNE30.05- 70.9 71.8 63.9---
2024-04-20 11:40 amSSW 11.7 13.6----30.05- 70.7 71.8 64.2---
2024-04-20 11:30 amSSW 9.7 13.6----30.05- 70.7 71.8 64.4---
2024-04-20 11:20 amSSW 9.7 11.7 4.9 117.5NNE30.05- 70.5 71.8 63.7---
2024-04-20 11:10 amSSW 7.8 11.7 4.9-7.5NNE30.05- 70.5 72.0 63.5---
2024-04-20 11:00 amSSW 7.8 11.7----30.05-0.01 70.3 72.0 63.0---
2024-04-20 10:50 am S 5.8 9.7 5.6 107.8NNE30.05- 70.3 72.0 62.8---
2024-04-20 10:40 amSSW 5.8 9.7 5.6-7.8NNE30.05- 70.2 72.0 62.2---
2024-04-20 10:30 amSSW 5.8 9.7----30.05- 70.0 72.0 62.1---
2024-04-20 10:20 amSSW 5.8 9.7 5.2 87.6 NE30.06- 69.8 72.0 62.1---
2024-04-20 10:10 am S 7.8 9.7 5.2-7.6 NE30.05- 69.6 72.0 61.7---
2024-04-20 10:00 am S 5.8 9.7----30.05+0.00 69.4 72.0 61.5---
2024-04-20 09:50 amSSW 5.8 9.7 5.6 117.8 N30.05- 69.3 71.8 61.7---
2024-04-20 09:40 amSSW 5.8 9.7----30.05- 69.3 72.0 61.9---
2024-04-20 09:30 amSSW 5.8 7.8----30.05- 69.1 72.0 61.3---
2024-04-20 09:20 amSSW 5.8 9.7 6.6 118.2 N30.05- 68.9 72.0 61.3---
2024-04-20 09:10 amSSW 5.8 9.7 6.6-8.2 N30.05- 68.9 72.0 61.5---
2024-04-20 09:00 amSSW 5.8 9.7----30.05+0.00 68.5 72.1 61.7---
2024-04-20 08:50 am SW 5.8 9.7 5.6 117.7 NE30.06- 68.5 72.0 61.9---
2024-04-20 08:40 am SW 5.8 7.8----30.06- 68.5 72.0 61.7---
2024-04-20 08:30 am SW 5.8 7.8----30.06- 68.5 71.8 61.9---
2024-04-20 08:20 am SW 5.8 7.8 5.2 117.5NNE30.06- 68.4 71.8 61.7---
2024-04-20 08:10 amWSW 5.8 7.8 5.2-7.5NNE30.06- 68.2 71.8 61.5---
2024-04-20 08:00 amWSW 5.8 7.8----30.06+0.03 68.2 71.8 61.7---
2024-04-20 07:50 amWSW 5.8 9.7 5.6 117.5NNE30.06- 68.2 71.6 61.5---
2024-04-20 07:40 amWSW 5.8 7.8----30.06- 68.2 71.4 61.7---
2024-04-20 07:30 am W 5.8 7.8----30.06- 68.0 71.2 61.5---
2024-04-20 07:20 amWSW 5.8 9.7 5.2 117.6NNE30.06- 67.8 71.4 61.5---
2024-04-20 07:10 am W 5.8 9.7 5.2-7.6NNE30.06- 67.8 71.4 61.5---
2024-04-20 07:00 amWSW 5.8 7.8----30.06+0.04 67.6 71.6 61.3---
2024-04-20 06:50 amWSW 5.8 7.8 5.2 87.0 NE30.05- 67.6 71.6 61.7---
2024-04-20 06:40 am W 7.8 7.8----30.06- 67.6 71.6 61.7---
2024-04-20 06:30 am W 7.8 9.7----30.05- 67.6 71.6 61.7---
2024-04-20 06:20 am W 7.8 9.7 5.2 117.1 NE30.05- 67.6 71.4 61.9---
2024-04-20 06:10 am W 7.8 11.7 5.2-7.1 NE30.05- 67.8 71.1 62.1---
2024-04-20 06:00 am W 5.8 9.7----30.04+0.02 67.6 71.1 61.7---
2024-04-20 05:50 am W 5.8 9.7 5.2 87.0NNE30.04- 67.8 71.1 61.9---
2024-04-20 05:40 am W 5.8 9.7----30.04- 67.8 71.1 61.3---
2024-04-20 05:30 am W 5.8 9.7----30.03- 68.0 70.9 61.0---
2024-04-20 05:20 am W 7.8 9.7 5.6 87.1 NE30.03- 68.0 71.1 61.0---
2024-04-20 05:10 am W 7.8 9.7 5.6-7.1 NE30.03- 68.0 71.1 60.8---
2024-04-20 05:00 am W 5.8 9.7----30.03+0.00 68.0 71.2 60.8---
2024-04-20 04:50 am W 5.8 7.8 5.6 87.2 NE30.03- 68.0 71.2 60.6---

Detailed Wave Summary
for 41001 as of (4:40 am EDT)
0840 GMT on 04/21/2024:

These wave data are displayed in rounded times.

     

Click on the graph icon in the table below to see a time series plot of the last five days of that observation.

5-day plot - Significant Wave Height Significant Wave Height (WVHT): 4.9 ft
5-day plot - Swell Height Swell Height (SwH): 4.3 ft
5-day plot - Swell Period Swell Period (SwP): 6.2 sec
5-day plot - Swell Direction Swell Direction (SwD): SW
5-day plot - Wind Wave Height Wind Wave Height (WWH): 2.0 ft
5-day plot - Wind Wave Period Wind Wave Period (WWP): 4.3 sec
5-day plot - Wind Wave Direction Wind Wave Direction (WWD): W
5-day plot - Wave Steepness Wave Steepness (STEEPNESS): STEEP
5-day plot - Average Wave Period Average Wave Period (APD): 5.7 sec
Previous observations
TIME
(EDT)
5-day plot - Wave Height
WVHT
ft
5-day plot - Swell Height
SwH
ft
5-day plot - Swell Period
SwP
sec
5-day plot - Swell Direction
SwD
 
5-day plot - Wind Wave Height
WWH
ft
5-day plot - Wind Wave Period
WWP
sec
5-day plot - Wind Wave Direction
WWD
 
5-day plot - Wave Steepness
STEEPNESS
 
5-day plot - Average Wave Period
APD
sec
2024-04-21 04:10 am 4.9 4.6 6.7SSE 2.0 4.5 NW STEEP 5.8
2024-04-21 03:40 am 4.9 3.9 6.7 SW 2.6 4.5 NW STEEP 5.6
2024-04-21 03:10 am 5.2 4.6 7.1ENE 2.3 4.8 W STEEP 5.6
2024-04-21 02:40 am 4.9 3.3 6.7 S 3.6 5.9 SSW STEEP 5.3
2024-04-21 02:10 am 4.9 3.0 7.1ENE 3.9 6.2 S STEEP 5.2
2024-04-21 01:40 am 4.9 3.3 7.1 E 3.6 5.9 WSWVERY_STEEP 5.4
2024-04-21 01:10 am 5.2 3.3 8.3ENE 3.9 6.2 WSW AVERAGE 5.5
2024-04-21 12:40 am 4.9 3.9 5.9 SW 3.0 5.3 WSWVERY_STEEP 5.3
2024-04-21 12:10 am 5.6 4.6 8.3ENE 3.3 5.3 SW AVERAGE 5.5
2024-04-20 11:40 pm 5.2 3.0 12.9 SE 4.6 7.7 E AVERAGE 5.4
2024-04-20 11:10 pm 5.6 4.6 8.3ENE 3.0 4.5 WSW AVERAGE 5.3
2024-04-20 10:40 pm 5.2 3.6 7.1ENE 3.9 5.3 SW STEEP 5.0
2024-04-20 10:10 pm 5.2 3.3 8.3ENE 4.3 4.8 WSW AVERAGE 4.9
2024-04-20 09:40 pm 5.6 3.6 8.3ENE 3.9 5.0 SW AVERAGE 4.9
2024-04-20 09:10 pm 4.9 3.3 7.7ENE 3.6 4.3 WSW AVERAGE 4.8
2024-04-20 08:40 pm 5.2 3.6 8.3 E 3.6 4.8 WSW AVERAGE 5.0
2024-04-20 08:10 pm 5.2 3.9 10.0NNE 3.6 4.8 SW SWELL 5.1
2024-04-20 07:40 pm 5.2 4.3 10.8NNE 3.0 4.2 SW SWELL 5.3
2024-04-20 07:10 pm 5.2 4.3 8.3ENE 3.3 4.2 WSW AVERAGE 5.3
2024-04-20 06:40 pm 4.6 3.6 10.0 NE 2.6 4.2 SW SWELL 5.2
2024-04-20 06:10 pm 4.6 3.6 10.8 NE 2.6 3.8 SW SWELL 5.4
2024-04-20 05:40 pm 4.6 3.9 10.8 N 2.6 4.0 SSW SWELL 5.5
2024-04-20 05:10 pm 4.6 3.9 7.7 NE 2.3 3.7 SSW AVERAGE 5.5
2024-04-20 04:40 pm 4.9 3.9 10.0 E 2.6 4.2 SSW SWELL 5.1
2024-04-20 04:10 pm 5.2 3.9 10.8NNE 3.3 3.7 SSW SWELL 5.1
2024-04-20 03:40 pm 5.2 4.6 10.8 NE 2.6 3.4 SSW SWELL 5.5
2024-04-20 03:10 pm 5.2 4.6 10.8 N 2.3 3.3 SSW SWELL 5.7
2024-04-20 02:40 pm 5.6 5.2 10.8NNE 2.3 5.3 ENE SWELL 6.2
2024-04-20 02:10 pm 5.6 5.2 10.0NNE 2.0 2.9 S SWELL 6.4
2024-04-20 01:40 pm 5.6 5.6 10.8NNE 1.6 2.6 SSW SWELL 6.8
2024-04-20 01:10 pm 5.2 4.6 8.3 NE 2.6 4.5 NE AVERAGE 7.0
2024-04-20 12:40 pm 4.6 4.6 10.0 NE 1.6 4.8 NE SWELL 7.3
2024-04-20 12:10 pm 4.9 4.9 10.8NNE 1.3 4.3 NE SWELL 7.8
2024-04-20 11:40 am 5.2 4.9 10.8NNE 1.3 5.0 NE SWELL 7.7
2024-04-20 11:10 am 4.9 4.9 10.8NNE 0.7 4.0 N SWELL 7.5
2024-04-20 10:40 am 5.6 5.2 10.0NNE 0.7 3.7 N SWELL 7.8
2024-04-20 10:10 am 5.2 5.2 8.3 NE 0.7 3.7 NNE AVERAGE 7.6
2024-04-20 09:40 am 5.6 5.6 10.8 N 0.7 3.7 NNW SWELL 7.8
2024-04-20 09:10 am 6.6 6.6 10.8 N 1.0 3.6 NNE SWELL 8.2
2024-04-20 08:40 am 5.6 5.6 10.8 NE 1.0 3.2 N SWELL 7.7
2024-04-20 08:10 am 5.2 5.2 10.8NNE 1.0 4.0 N SWELL 7.5
2024-04-20 07:40 am 5.6 5.2 10.8NNE 1.0 3.7 N SWELL 7.5
2024-04-20 07:10 am 5.2 5.2 11.4NNE 1.0 3.6 NNW SWELL 7.6
2024-04-20 06:40 am 5.2 4.9 8.3 NE 1.0 4.0 N AVERAGE 7.0
2024-04-20 06:10 am 5.2 5.2 10.8 NE 1.0 3.6 NNW SWELL 7.1
2024-04-20 05:40 am 5.2 5.2 8.3NNE 1.0 3.7 NNW AVERAGE 7.0
2024-04-20 05:10 am 5.6 5.2 8.3 NE 1.0 4.0 NNW AVERAGE 7.1

Plot of wave energy versus frequency (and period)